TimeCDT,TemperatureF,Dew PointF,Humidity,Sea Level PressureIn,VisibilityMPH,Wind Direction,Wind SpeedMPH,Gust SpeedMPH,PrecipitationIn,Events,Conditions,WindDirDegrees,DateUTC
12:51 AM,82.0,75.9,82,29.91,10.0,SSE,8.1,-,N/A,,Clear,160,2013-08-08 05:51:00
1:51 AM,81.0,75.9,85,29.90,10.0,SSE,9.2,-,N/A,,Clear,160,2013-08-08 06:51:00
2:22 AM,80.6,75.2,84,29.90,10.0,South,9.2,-,N/A,,Mostly Cloudy,170,2013-08-08 07:22:00
2:51 AM,82.0,75.9,82,29.89,10.0,South,10.4,-,N/A,,Mostly Cloudy,170,2013-08-08 07:51:00
3:13 AM,82.4,75.2,79,29.89,10.0,South,12.7,-,N/A,,Partly Cloudy,170,2013-08-08 08:13:00
3:51 AM,81.0,75.9,85,29.86,10.0,South,11.5,-,N/A,,Partly Cloudy,170,2013-08-08 08:51:00
4:51 AM,81.0,75.0,82,29.86,10.0,South,11.5,-,N/A,,Partly Cloudy,170,2013-08-08 09:51:00
5:51 AM,80.1,75.0,85,29.86,10.0,South,6.9,-,N/A,,Partly Cloudy,170,2013-08-08 10:51:00
6:51 AM,80.1,75.0,85,29.86,7.0,SSE,6.9,-,N/A,,Partly Cloudy,160,2013-08-08 11:51:00
7:51 AM,81.0,75.9,85,29.87,6.0,SSE,5.8,-,N/A,,Haze,150,2013-08-08 12:51:00
8:51 AM,84.0,75.9,76,29.88,8.0,South,10.4,-,N/A,,Clear,170,2013-08-08 13:51:00
9:51 AM,88.0,75.0,65,29.89,10.0,South,15.0,21.9,N/A,,Scattered Clouds,190,2013-08-08 14:51:00
10:51 AM,91.9,73.9,55,29.89,10.0,South,11.5,-,N/A,,Partly Cloudy,170,2013-08-08 15:51:00
11:51 AM,95.0,72.0,47,29.89,10.0,SSE,9.2,17.3,N/A,,Partly Cloudy,160,2013-08-08 16:51:00
12:51 PM,96.1,73.0,47,29.88,10.0,SSW,9.2,18.4,N/A,,Partly Cloudy,200,2013-08-08 17:51:00
1:51 PM,98.1,75.0,48,29.87,10.0,SE,12.7,23.0,N/A,,Partly Cloudy,130,2013-08-08 18:51:00
2:51 PM,97.0,75.0,49,29.86,10.0,SE,13.8,23.0,N/A,,Partly Cloudy,140,2013-08-08 19:51:00
3:51 PM,96.1,75.0,51,29.85,10.0,SE,18.4,25.3,N/A,,Partly Cloudy,130,2013-08-08 20:51:00
4:51 PM,95.0,73.9,50,29.83,10.0,SE,19.6,26.5,N/A,,Partly Cloudy,130,2013-08-08 21:51:00
5:51 PM,91.9,73.9,55,29.82,10.0,SE,21.9,28.8,N/A,,Clear,140,2013-08-08 22:51:00
6:51 PM,90.0,73.9,59,29.82,10.0,SE,21.9,27.6,N/A,,Clear,140,2013-08-08 23:51:00
7:51 PM,87.1,75.0,67,29.83,9.0,SE,20.7,27.6,N/A,,Partly Cloudy,140,2013-08-09 00:51:00
8:51 PM,84.9,75.0,72,29.84,10.0,SE,18.4,24.2,N/A,,Partly Cloudy,140,2013-08-09 01:51:00
9:51 PM,84.0,75.0,74,29.86,10.0,SSE,11.5,-,N/A,,Clear,150,2013-08-09 02:51:00
10:51 PM,82.9,75.0,77,29.88,10.0,SSE,10.4,-,N/A,,Partly Cloudy,150,2013-08-09 03:51:00
11:51 PM,82.0,75.0,79,29.90,10.0,SSE,6.9,-,N/A,,Clear,160,2013-08-09 04:51:00